Regional Weather Roundup
Issued by NWS Bismarck, ND

Home | Current Version | Previous Version | Graphics & Text | Print | Product List | Glossary On
Versions: 1 2 3 4 5 6 7 8 9 10 11 12 13 14 15 16 17 18 19 20 21 22 23 24 25 26 27 28 29 30 31 32 33 34 35 36 37 38 39 40 41 42 43 44 45 46 47 48 49 50
000
ASUS43 KBIS 300520
RWRBIS

NWR BROADCAST TEXT
NATIONAL WEATHER SERVICE BISMARCK ND
1200 AM CDT SAT AUG 30 2014

NOTE: "FAIR" INDICATES FEW OR NO CLOUDS BELOW 12,000 FEET WITH NO
SIGNIFICANT WEATHER AND/OR OBSTRUCTIONS TO VISIBILITY.


CITY           SKY/WX    TMP DP  RH WIND       PRES   REMARKS
WILLISTON      CLEAR     55  49  80 CALM      29.96S
MINOT          CLEAR     54  49  83 S5        29.96S
MINOT AFB      CLEAR     52  51  94 SW6       29.96S
BISMARCK       CLEAR     56  53  90 CALM      29.99R
DICKINSON      CLEAR     52  48  86 SE7       29.98S
GARRISON         N/A     52  50  93 CALM      29.98S
HETTINGER ARPT CLEAR     56  51  84 E7        30.01S
JAMESTOWN      CLOUDY    60  56  86 N7        29.94S
BEACH            N/A     50  50 100 SE7       30.00S
CARRINGTON     FAIR      52  52 100 N6        29.97F
CROSBY         FAIR      52  48  87 S7        29.96S
HARVEY         FAIR      48  48 100 CALM      29.98S
HAZEN          FAIR      46  46 100 CALM      29.99S
LINTON         FAIR      50  50 100 CALM      29.97S
MANDAN         FAIR      52  50  93 CALM      30.00S
OAKES            N/A     59  59 100 N10       29.92R
RUGBY          FAIR      48  48 100 E6        29.98R
STANLEY        FAIR      50  50 100 SW3       29.98S
TIOGA          FAIR      48  48 100 E5        30.00F
WATFORD CITY   FAIR      54  50  87 E6        29.95F
$$

CITY           SKY/WX    TMP DP  RH WIND       PRES   REMARKS
GRAND FORKS    PTCLDY    58  54  86 N12       29.91S
GRAND FORKS AF PTCLDY    57  57  99 N10       29.93S
DEVILS LAKE    CLEAR     54  45  71 NE7       29.96S
FARGO          CLOUDY    62  57  83 N18       29.87R
CANDO          FAIR      48  48 100 NE6       29.98S
CAVALIER       FAIR      54  50  87 N7        29.96S
GRAFTON        FAIR      55  55 100 N8        29.94S
GWINNER        CLOUDY    61  57  88 N16       29.91R
LANGDON        FAIR      46  45  93 N8        29.97S
ROLLA          FAIR      45  45 100 CALM      30.00S
WALHALLA         N/A     50  50 100 NW6       29.97S
$$

CITY           SKY/WX    TMP DP  RH WIND       PRES   REMARKS
ABERDEEN       CLOUDY    60  57  89 N13       29.91S
MOBRIDGE       CLEAR     54  54 100 N5        29.96R
BUFFALO          N/A     56  51  84 E7        29.95R
RAPID CITY     PTCLDY    60  53  77 CALM      30.04R
GLASGOW        CLEAR     59  52  77 E10       29.89F
SIDNEY         CLEAR     55  50  82 CALM      29.97S
WOLF POINT     CLEAR     62  50  64 SE3       29.92F
GLENDIVE       CLEAR     59  52  77 SE7       29.97F
MILES CITY     CLEAR     61  51  70 SE7       29.94F
BAKER          CLEAR     52  50  93 SE8       30.01R
$$

CITY           SKY/WX    TMP DP  RH WIND       PRES   REMARKS
BILLINGS       PTCLDY    66  53  63 N3        29.89F
GREAT FALLS    CLEAR     61  44  53 SW10      29.79F
REGINA         CLEAR     55  45  67 SE12      29.92F
ESTEVAN        PTCLDY    52  46  82 E8        29.95F
$$



USA.gov is the U.S. government's official web portal to all federal, state and local government web resources and services.